Time,TemperatureF,DewpointF,PressureIn,WindDirection,WindDirectionDegrees,WindSpeedMPH,WindSpeedGustMPH,Humidity,HourlyPrecipIn,Conditions,Clouds,dailyrainin,SoftwareType,DateUTC
2013-08-18 00:00:00,64.9,59.6,30.05,ESE,119,0.0,2.0,83,0.00,,,0.00,Wunderground v.1.15,2013-08-18 05:00:00,
2013-08-18 00:10:00,64.7,59.4,30.05,ENE,62,1.0,1.0,83,0.00,,,0.00,Wunderground v.1.15,2013-08-18 05:10:00,
2013-08-18 00:15:00,64.6,59.3,30.05,East,94,0.0,1.0,83,0.00,,,0.00,Wunderground v.1.15,2013-08-18 05:15:00,
2013-08-18 00:25:00,64.6,59.3,30.05,ESE,105,1.0,1.0,83,0.00,,,0.00,Wunderground v.1.15,2013-08-18 05:25:00,
2013-08-18 00:30:00,64.5,59.2,30.05,SE,125,1.0,1.0,83,0.00,,,0.00,Wunderground v.1.15,2013-08-18 05:30:00,
2013-08-18 00:40:00,64.3,59.0,30.05,SE,125,1.0,1.0,83,0.00,,,0.00,Wunderground v.1.15,2013-08-18 05:40:00,
2013-08-18 00:45:00,64.2,58.9,30.05,SE,134,1.0,2.0,83,0.00,,,0.00,Wunderground v.1.15,2013-08-18 05:45:00,
2013-08-18 00:55:00,64.1,58.8,30.05,ESE,105,1.0,1.0,83,0.00,,,0.00,Wunderground v.1.15,2013-08-18 05:55:00,
2013-08-18 01:05:00,64.0,58.7,30.05,ESE,112,1.0,6.0,83,0.00,,,0.00,Wunderground v.1.15,2013-08-18 06:05:00,
2013-08-18 01:15:00,63.8,58.5,30.06,SE,139,1.0,6.0,83,0.00,,,0.00,Wunderground v.1.15,2013-08-18 06:15:00,
2013-08-18 01:25:00,63.7,58.4,30.05,ESE,120,1.0,6.0,83,0.00,,,0.00,Wunderground v.1.15,2013-08-18 06:25:00,
2013-08-18 01:35:00,63.7,58.4,30.05,ESE,120,1.0,6.0,83,0.00,,,0.00,Wunderground v.1.15,2013-08-18 06:35:00,
2013-08-18 01:40:00,63.7,58.4,30.06,ESE,117,1.0,1.0,83,0.00,,,0.00,Wunderground v.1.15,2013-08-18 06:40:00,
2013-08-18 01:50:00,63.8,58.5,30.06,SE,139,1.0,6.0,83,0.00,,,0.00,Wunderground v.1.15,2013-08-18 06:50:00,
2013-08-18 01:55:00,63.9,58.6,30.06,SE,125,1.0,6.0,83,0.00,,,0.00,Wunderground v.1.15,2013-08-18 06:55:00,
2013-08-18 02:05:00,63.9,58.3,30.05,East,99,1.0,6.0,82,0.00,,,0.00,Wunderground v.1.15,2013-08-18 07:05:00,
2013-08-18 02:15:00,63.8,58.2,30.05,SE,125,1.0,6.0,82,0.00,,,0.00,Wunderground v.1.15,2013-08-18 07:15:00,
2013-08-18 02:25:00,63.5,57.9,30.05,East,95,1.0,6.0,82,0.00,,,0.00,Wunderground v.1.15,2013-08-18 07:25:00,
2013-08-18 02:35:00,63.3,58.0,30.05,East,90,1.0,6.0,83,0.00,,,0.00,Wunderground v.1.15,2013-08-18 07:35:00,
2013-08-18 02:40:00,63.2,57.9,30.05,East,101,1.0,1.0,83,0.00,,,0.00,Wunderground v.1.15,2013-08-18 07:40:00,
2013-08-18 02:50:00,63.1,57.9,30.05,ESE,123,1.0,6.0,83,0.00,,,0.00,Wunderground v.1.15,2013-08-18 07:50:00,
2013-08-18 03:00:00,63.0,57.8,30.05,East,98,0.0,6.0,83,0.00,,,0.00,Wunderground v.1.15,2013-08-18 08:00:00,
2013-08-18 03:05:00,62.8,57.6,30.04,ESE,123,0.0,6.0,83,0.00,,,0.00,Wunderground v.1.15,2013-08-18 08:05:00,
2013-08-18 03:15:00,62.6,57.7,30.04,ESE,115,0.0,6.0,84,0.00,,,0.00,Wunderground v.1.15,2013-08-18 08:15:00,
2013-08-18 03:25:00,62.2,57.3,30.04,SE,124,0.0,6.0,84,0.00,,,0.00,Wunderground v.1.15,2013-08-18 08:25:00,
2013-08-18 03:35:00,62.0,57.1,30.04,East,79,0.0,6.0,84,0.00,,,0.00,Wunderground v.1.15,2013-08-18 08:35:00,
2013-08-18 03:45:00,61.7,57.1,30.04,ESE,109,0.0,6.0,85,0.00,,,0.00,Wunderground v.1.15,2013-08-18 08:45:00,
2013-08-18 03:50:00,61.5,56.9,30.04,ENE,61,0.0,6.0,85,0.00,,,0.00,Wunderground v.1.15,2013-08-18 08:50:00,
2013-08-18 04:00:00,61.4,56.8,30.04,ESE,121,0.0,6.0,85,0.00,,,0.00,Wunderground v.1.15,2013-08-18 09:00:00,
2013-08-18 04:10:00,61.7,57.1,30.04,East,91,0.0,6.0,85,0.00,,,0.00,Wunderground v.1.15,2013-08-18 09:10:00,
2013-08-18 04:15:00,61.8,56.9,30.04,East,89,0.0,6.0,84,0.00,,,0.00,Wunderground v.1.15,2013-08-18 09:15:00,
2013-08-18 04:25:00,61.8,56.9,30.03,ESE,110,1.0,6.0,84,0.00,,,0.00,Wunderground v.1.15,2013-08-18 09:25:00,
2013-08-18 04:35:00,61.9,57.0,30.04,South,169,0.0,6.0,84,0.00,,,0.00,Wunderground v.1.15,2013-08-18 09:35:00,
2013-08-18 04:45:00,61.9,57.0,30.03,East,86,0.0,6.0,84,0.00,,,0.00,Wunderground v.1.15,2013-08-18 09:45:00,
2013-08-18 04:50:00,61.9,57.0,30.03,ENE,58,1.0,1.0,84,0.00,,,0.00,Wunderground v.1.15,2013-08-18 09:50:00,
2013-08-18 05:00:00,61.9,57.0,30.03,East,89,1.0,1.0,84,0.00,,,0.00,Wunderground v.1.15,2013-08-18 10:00:00,
2013-08-18 05:10:00,61.7,57.1,30.03,East,94,0.0,6.0,85,0.00,,,0.00,Wunderground v.1.15,2013-08-18 10:10:00,
2013-08-18 05:15:00,61.7,57.1,30.03,SE,134,0.0,6.0,85,0.00,,,0.00,Wunderground v.1.15,2013-08-18 10:15:00,
2013-08-18 05:25:00,61.6,57.0,30.03,ESE,109,0.0,6.0,85,0.00,,,0.00,Wunderground v.1.15,2013-08-18 10:25:00,
2013-08-18 05:35:00,61.4,56.8,30.03,ESE,109,1.0,6.0,85,0.00,,,0.00,Wunderground v.1.15,2013-08-18 10:35:00,
2013-08-18 05:45:00,61.4,56.8,30.03,NE,53,0.0,6.0,85,0.00,,,0.00,Wunderground v.1.15,2013-08-18 10:45:00,
2013-08-18 05:50:00,61.3,56.8,30.03,ESE,120,0.0,6.0,85,0.00,,,0.00,Wunderground v.1.15,2013-08-18 10:50:00,
2013-08-18 06:00:00,61.1,56.6,30.03,SE,126,0.0,0.0,85,0.00,,,0.00,Wunderground v.1.15,2013-08-18 11:00:00,
2013-08-18 06:10:00,61.1,56.6,30.03,ESE,114,0.0,0.0,85,0.00,,,0.00,Wunderground v.1.15,2013-08-18 11:10:00,
2013-08-18 06:15:00,61.1,56.6,30.03,East,92,0.0,3.0,85,0.00,,,0.00,Wunderground v.1.15,2013-08-18 11:15:00,
2013-08-18 06:25:00,61.2,56.7,30.03,SE,139,1.0,1.0,85,0.00,,,0.00,Wunderground v.1.15,2013-08-18 11:25:00,
2013-08-18 06:35:00,61.2,56.7,30.04,ESE,120,1.0,1.0,85,0.00,,,0.00,Wunderground v.1.15,2013-08-18 11:35:00,
2013-08-18 06:45:00,61.2,56.7,30.04,SW,232,1.0,1.0,85,0.00,,,0.00,Wunderground v.1.15,2013-08-18 11:45:00,
2013-08-18 06:54:00,61.2,56.7,30.04,ESE,110,0.0,1.0,85,0.00,,,0.00,Wunderground v.1.15,2013-08-18 11:54:00,
2013-08-18 07:00:00,61.1,56.6,30.04,ESE,119,0.0,0.0,85,0.00,,,0.00,Wunderground v.1.15,2013-08-18 12:00:00,
2013-08-18 07:10:00,61.1,56.6,30.04,ESE,117,1.0,1.0,85,0.00,,,0.00,Wunderground v.1.15,2013-08-18 12:10:00,
2013-08-18 07:15:00,61.3,56.8,30.04,SSE,148,1.0,3.0,85,0.00,,,0.00,Wunderground v.1.15,2013-08-18 12:15:00,
2013-08-18 07:25:00,61.5,56.6,30.04,SSE,160,1.0,3.0,84,0.00,,,0.00,Wunderground v.1.15,2013-08-18 12:25:00,
2013-08-18 07:35:00,61.6,56.7,30.04,ESE,105,0.0,3.0,84,0.00,,,0.00,Wunderground v.1.15,2013-08-18 12:35:00,
2013-08-18 07:45:00,61.8,56.9,30.04,East,92,1.0,3.0,84,0.00,,,0.00,Wunderground v.1.15,2013-08-18 12:45:00,
2013-08-18 07:54:00,62.5,57.3,30.04,ESE,103,1.0,3.0,83,0.00,,,0.00,Wunderground v.1.15,2013-08-18 12:54:00,
2013-08-18 08:04:00,63.7,58.1,30.04,SE,127,0.0,3.0,82,0.00,,,0.00,Wunderground v.1.15,2013-08-18 13:04:00,
2013-08-18 08:10:00,64.4,58.4,30.04,ESE,108,1.0,1.0,81,0.00,,,0.00,Wunderground v.1.15,2013-08-18 13:10:00,
2013-08-18 08:20:00,65.3,58.6,30.04,SE,141,0.0,3.0,79,0.00,,,0.00,Wunderground v.1.15,2013-08-18 13:20:00,
2013-08-18 08:25:00,65.7,59.0,30.04,South,178,0.0,3.0,79,0.00,,,0.00,Wunderground v.1.15,2013-08-18 13:25:00,
2013-08-18 08:35:00,66.4,59.0,30.04,ESE,109,1.0,3.0,77,0.00,,,0.00,Wunderground v.1.15,2013-08-18 13:35:00,
2013-08-18 08:45:00,66.9,58.7,30.04,SSW,195,3.0,3.0,75,0.00,,,0.00,Wunderground v.1.15,2013-08-18 13:45:00,
2013-08-18 08:54:00,66.9,58.7,30.04,South,169,2.0,5.0,75,0.00,,,0.00,Wunderground v.1.15,2013-08-18 13:54:00,
2013-08-18 09:04:00,67.1,58.9,30.04,SE,146,4.0,7.0,75,0.00,,,0.00,Wunderground v.1.15,2013-08-18 14:04:00,
2013-08-18 09:10:00,67.2,59.0,30.04,SE,129,3.0,3.0,75,0.00,,,0.00,Wunderground v.1.15,2013-08-18 14:10:00,
2013-08-18 09:20:00,67.4,58.8,30.04,NW,318,4.0,4.0,74,0.00,,,0.00,Wunderground v.1.15,2013-08-18 14:20:00,
2013-08-18 09:25:00,67.6,59.0,30.04,SW,221,4.0,4.0,74,0.00,,,0.00,Wunderground v.1.15,2013-08-18 14:25:00,
2013-08-18 09:35:00,67.7,59.5,30.04,ESE,118,5.0,5.0,75,0.00,,,0.00,Wunderground v.1.15,2013-08-18 14:35:00,
2013-08-18 09:45:00,68.0,59.8,30.04,SW,229,4.0,8.0,75,0.00,,,0.00,Wunderground v.1.15,2013-08-18 14:45:00,
2013-08-18 09:54:00,69.3,60.7,30.04,South,188,4.0,4.0,74,0.00,,,0.00,Wunderground v.1.15,2013-08-18 14:54:00,
2013-08-18 10:04:00,70.6,61.1,30.04,West,262,4.0,5.0,72,0.00,,,0.00,Wunderground v.1.15,2013-08-18 15:04:00,
2013-08-18 10:10:00,70.8,61.3,30.04,South,185,3.0,5.0,72,0.00,,,0.00,Wunderground v.1.15,2013-08-18 15:10:00,
2013-08-18 10:20:00,70.5,61.0,30.04,WSW,257,5.0,6.0,72,0.00,,,0.00,Wunderground v.1.15,2013-08-18 15:20:00,
2013-08-18 10:25:00,70.3,60.8,30.04,SSW,203,5.0,6.0,72,0.00,,,0.00,Wunderground v.1.15,2013-08-18 15:25:00,
2013-08-18 10:35:00,71.6,61.3,30.03,SSW,195,4.0,9.0,70,0.00,,,0.00,Wunderground v.1.15,2013-08-18 15:35:00,
2013-08-18 10:45:00,72.0,61.3,30.03,SE,146,6.0,6.0,69,0.00,,,0.00,Wunderground v.1.15,2013-08-18 15:45:00,
2013-08-18 10:54:00,72.3,61.6,30.03,WSW,257,6.0,9.0,69,0.00,,,0.00,Wunderground v.1.15,2013-08-18 15:54:00,
2013-08-18 11:04:00,72.3,62.0,30.02,South,179,7.0,7.0,70,0.00,,,0.00,Wunderground v.1.15,2013-08-18 16:04:00,
2013-08-18 11:10:00,72.2,61.5,30.02,South,181,7.0,10.0,69,0.00,,,0.00,Wunderground v.1.15,2013-08-18 16:10:00,
2013-08-18 11:20:00,72.0,61.7,30.02,SSE,151,7.0,7.0,70,0.00,,,0.00,Wunderground v.1.15,2013-08-18 16:20:00,
2013-08-18 11:25:00,72.4,62.5,30.02,SW,214,6.0,8.0,71,0.00,,,0.00,Wunderground v.1.15,2013-08-18 16:25:00,
2013-08-18 11:35:00,72.7,62.3,30.02,SE,126,5.0,6.0,70,0.00,,,0.00,Wunderground v.1.15,2013-08-18 16:35:00,
2013-08-18 11:45:00,72.9,62.5,30.02,SSE,158,6.0,6.0,70,0.00,,,0.00,Wunderground v.1.15,2013-08-18 16:45:00,
2013-08-18 11:55:00,74.0,63.2,30.02,SSW,204,4.0,7.0,69,0.00,,,0.00,Wunderground v.1.15,2013-08-18 16:55:00,
2013-08-18 12:00:00,74.7,63.4,30.01,SSW,202,5.0,10.0,68,0.00,,,0.00,Wunderground v.1.15,2013-08-18 17:00:00,
2013-08-18 12:09:00,74.8,63.1,30.02,South,169,5.0,5.0,67,0.00,,,0.00,Wunderground v.1.15,2013-08-18 17:09:00,
2013-08-18 12:15:00,74.6,62.5,30.01,South,173,6.0,6.0,66,0.00,,,0.00,Wunderground v.1.15,2013-08-18 17:15:00,
2013-08-18 12:24:00,74.5,62.8,30.01,South,190,6.0,8.0,67,0.00,,,0.00,Wunderground v.1.15,2013-08-18 17:24:00,
2013-08-18 12:30:00,74.9,63.2,30.01,SSE,150,6.0,6.0,67,0.00,,,0.00,Wunderground v.1.15,2013-08-18 17:30:00,
2013-08-18 12:40:00,76.2,64.4,30.00,East,84,5.0,16.0,67,0.00,,,0.00,Wunderground v.1.15,2013-08-18 17:40:00,
2013-08-18 12:50:00,76.8,64.1,30.00,SSE,156,5.0,5.0,65,0.00,,,0.00,Wunderground v.1.15,2013-08-18 17:50:00,
2013-08-18 13:00:00,76.4,64.6,30.00,WSW,246,5.0,16.0,67,0.00,,,0.00,Wunderground v.1.15,2013-08-18 18:00:00,
2013-08-18 13:05:00,76.3,64.5,30.00,ESE,115,5.0,16.0,67,0.00,,,0.00,Wunderground v.1.15,2013-08-18 18:05:00,
2013-08-18 13:15:00,76.5,64.7,30.00,SSW,200,3.0,6.0,67,0.00,,,0.00,Wunderground v.1.15,2013-08-18 18:15:00,
2013-08-18 13:25:00,75.8,64.5,30.01,SSW,208,6.0,6.0,68,0.00,,,0.00,Wunderground v.1.15,2013-08-18 18:25:00,
2013-08-18 13:34:00,76.5,64.7,30.00,SSW,202,3.0,16.0,67,0.00,,,0.00,Wunderground v.1.15,2013-08-18 18:34:00,
2013-08-18 13:40:00,76.2,64.0,30.01,South,174,5.0,16.0,66,0.00,,,0.00,Wunderground v.1.15,2013-08-18 18:40:00,
2013-08-18 13:50:00,76.1,64.3,30.00,South,176,6.0,6.0,67,0.00,,,0.00,Wunderground v.1.15,2013-08-18 18:50:00,
2013-08-18 13:55:00,76.7,64.5,30.00,SSW,207,5.0,16.0,66,0.00,,,0.00,Wunderground v.1.15,2013-08-18 18:55:00,
2013-08-18 14:05:00,77.7,65.0,30.00,SSE,160,5.0,16.0,65,0.00,,,0.00,Wunderground v.1.15,2013-08-18 19:05:00,
2013-08-18 14:15:00,78.2,65.0,30.00,South,177,5.0,16.0,64,0.00,,,0.00,Wunderground v.1.15,2013-08-18 19:15:00,
2013-08-18 14:25:00,78.4,65.7,30.00,SW,218,5.0,16.0,65,0.00,,,0.00,Wunderground v.1.15,2013-08-18 19:25:00,
2013-08-18 14:34:00,78.1,64.9,30.00,South,181,6.0,16.0,64,0.00,,,0.00,Wunderground v.1.15,2013-08-18 19:34:00,
2013-08-18 14:40:00,78.5,64.9,30.00,South,188,6.0,16.0,63,0.00,,,0.00,Wunderground v.1.15,2013-08-18 19:40:00,
2013-08-18 14:50:00,78.8,65.6,29.99,ESE,117,6.0,6.0,64,0.00,,,0.00,Wunderground v.1.15,2013-08-18 19:50:00,
2013-08-18 14:55:00,78.7,65.0,29.99,SE,139,5.0,7.0,63,0.00,,,0.00,Wunderground v.1.15,2013-08-18 19:55:00,
2013-08-18 15:05:00,78.7,65.5,29.99,SE,143,5.0,16.0,64,0.00,,,0.00,Wunderground v.1.15,2013-08-18 20:05:00,
2013-08-18 15:15:00,78.3,65.1,29.99,SSE,160,5.0,16.0,64,0.00,,,0.00,Wunderground v.1.15,2013-08-18 20:15:00,
2013-08-18 15:25:00,77.7,65.4,29.99,SW,235,6.0,16.0,66,0.00,,,0.00,Wunderground v.1.15,2013-08-18 20:25:00,
2013-08-18 15:34:00,77.6,65.3,29.98,SSW,213,5.0,16.0,66,0.00,,,0.00,Wunderground v.1.15,2013-08-18 20:34:00,
2013-08-18 15:40:00,77.5,65.2,29.98,SSE,162,4.0,16.0,66,0.00,,,0.00,Wunderground v.1.15,2013-08-18 20:40:00,
2013-08-18 15:50:00,77.7,65.4,29.97,West,260,5.0,16.0,66,0.00,,,0.00,Wunderground v.1.15,2013-08-18 20:50:00,
2013-08-18 15:55:00,77.6,65.8,29.97,SSW,211,5.0,16.0,67,0.00,,,0.00,Wunderground v.1.15,2013-08-18 20:55:00,
2013-08-18 16:05:00,77.6,65.8,29.97,WSW,243,5.0,16.0,67,0.00,,,0.00,Wunderground v.1.15,2013-08-18 21:05:00,
2013-08-18 16:15:00,77.3,65.1,29.97,WSW,245,5.0,16.0,66,0.00,,,0.00,Wunderground v.1.15,2013-08-18 21:15:00,
2013-08-18 16:25:00,77.6,65.8,29.96,ENE,58,5.0,16.0,67,0.00,,,0.00,Wunderground v.1.15,2013-08-18 21:25:00,
2013-08-18 16:34:00,77.9,66.1,29.96,SSW,204,5.0,16.0,67,0.00,,,0.00,Wunderground v.1.15,2013-08-18 21:34:00,
2013-08-18 16:40:00,78.3,66.0,29.95,SW,235,6.0,6.0,66,0.00,,,0.00,Wunderground v.1.15,2013-08-18 21:40:00,
2013-08-18 16:50:00,78.3,66.0,29.95,SW,235,4.0,4.0,66,0.00,,,0.00,Wunderground v.1.15,2013-08-18 21:50:00,
2013-08-18 16:55:00,78.1,65.8,29.95,SE,136,5.0,5.0,66,0.00,,,0.00,Wunderground v.1.15,2013-08-18 21:55:00,
2013-08-18 17:05:00,78.3,66.0,29.96,West,262,5.0,16.0,66,0.00,,,0.00,Wunderground v.1.15,2013-08-18 22:05:00,
2013-08-18 17:15:00,77.9,66.1,29.96,SW,233,5.0,16.0,67,0.00,,,0.00,Wunderground v.1.15,2013-08-18 22:15:00,
2013-08-18 17:25:00,77.8,66.0,29.96,South,174,3.0,5.0,67,0.00,,,0.00,Wunderground v.1.15,2013-08-18 22:25:00,
2013-08-18 17:34:00,77.6,65.8,29.95,SE,141,5.0,6.0,67,0.00,,,0.00,Wunderground v.1.15,2013-08-18 22:34:00,
2013-08-18 17:40:00,77.6,65.8,29.96,South,175,5.0,5.0,67,0.00,,,0.00,Wunderground v.1.15,2013-08-18 22:40:00,
2013-08-18 17:50:00,77.8,66.0,29.96,SSE,168,3.0,16.0,67,0.00,,,0.00,Wunderground v.1.15,2013-08-18 22:50:00,
2013-08-18 18:00:00,78.1,66.2,29.96,ESE,119,3.0,3.0,67,0.00,,,0.00,Wunderground v.1.15,2013-08-18 23:00:00,
2013-08-18 18:10:00,77.6,66.2,29.96,SSW,210,5.0,5.0,68,0.00,,,0.00,Wunderground v.1.15,2013-08-18 23:10:00,
2013-08-18 18:15:00,77.5,66.1,29.96,WSW,253,5.0,6.0,68,0.00,,,0.00,Wunderground v.1.15,2013-08-18 23:15:00,
2013-08-18 18:25:00,77.5,66.5,29.97,SSW,203,3.0,4.0,69,0.00,,,0.00,Wunderground v.1.15,2013-08-18 23:25:00,
2013-08-18 18:35:00,77.2,65.8,29.97,South,179,4.0,6.0,68,0.00,,,0.00,Wunderground v.1.15,2013-08-18 23:35:00,
2013-08-18 18:44:00,77.1,66.1,29.97,South,169,3.0,4.0,69,0.00,,,0.00,Wunderground v.1.15,2013-08-18 23:44:00,
2013-08-18 18:50:00,77.0,66.0,29.97,SSE,153,3.0,3.0,69,0.00,,,0.00,Wunderground v.1.15,2013-08-18 23:50:00,
2013-08-18 19:00:00,76.8,66.7,29.97,SW,216,1.0,3.0,71,0.00,,,0.00,Wunderground v.1.15,2013-08-19 00:00:00,
2013-08-18 19:05:00,76.7,66.6,29.97,SW,219,1.0,13.0,71,0.00,,,0.00,Wunderground v.1.15,2013-08-19 00:05:00,
2013-08-18 19:15:00,76.4,66.7,29.97,SSE,160,0.0,2.0,72,0.00,,,0.00,Wunderground v.1.15,2013-08-19 00:15:00,
2013-08-18 19:25:00,76.2,66.5,29.97,SE,138,2.0,2.0,72,0.00,,,0.00,Wunderground v.1.15,2013-08-19 00:25:00,
2013-08-18 19:35:00,76.0,66.7,29.97,SSW,211,1.0,13.0,73,0.00,,,0.00,Wunderground v.1.15,2013-08-19 00:35:00,
2013-08-18 19:44:00,75.9,67.0,29.96,SSE,164,1.0,13.0,74,0.00,,,0.00,Wunderground v.1.15,2013-08-19 00:44:00,
2013-08-18 19:50:00,75.7,66.8,29.96,SSW,205,1.0,13.0,74,0.00,,,0.00,Wunderground v.1.15,2013-08-19 00:50:00,
2013-08-18 20:00:00,75.4,66.5,29.96,South,183,0.0,13.0,74,0.00,,,0.00,Wunderground v.1.15,2013-08-19 01:00:00,
2013-08-18 20:05:00,75.3,66.4,29.96,ESE,112,1.0,13.0,74,0.00,,,0.00,Wunderground v.1.15,2013-08-19 01:05:00,
2013-08-18 20:15:00,75.0,66.5,29.96,SE,138,1.0,13.0,75,0.00,,,0.00,Wunderground v.1.15,2013-08-19 01:15:00,
2013-08-18 20:25:00,74.7,66.2,29.96,ESE,120,0.0,13.0,75,0.00,,,0.00,Wunderground v.1.15,2013-08-19 01:25:00,
2013-08-18 20:35:00,74.3,65.9,29.96,SSE,168,1.0,13.0,75,0.00,,,0.00,Wunderground v.1.15,2013-08-19 01:35:00,
2013-08-18 20:44:00,74.0,66.0,29.96,SE,125,1.0,13.0,76,0.00,,,0.00,Wunderground v.1.15,2013-08-19 01:44:00,
2013-08-18 20:50:00,73.9,65.9,29.96,ESE,120,0.0,13.0,76,0.00,,,0.00,Wunderground v.1.15,2013-08-19 01:50:00,
2013-08-18 20:55:00,73.7,65.7,29.96,SSW,208,0.0,13.0,76,0.00,,,0.00,Wunderground v.1.15,2013-08-19 01:55:00,
2013-08-18 21:05:00,73.4,65.7,29.96,ESE,112,1.0,13.0,77,0.00,,,0.00,Wunderground v.1.15,2013-08-19 02:05:00,
2013-08-18 21:15:00,73.1,65.8,29.95,SE,134,1.0,13.0,78,0.00,,,0.00,Wunderground v.1.15,2013-08-19 02:15:00,
2013-08-18 21:25:00,72.6,65.3,29.95,ESE,121,0.0,13.0,78,0.00,,,0.00,Wunderground v.1.15,2013-08-19 02:25:00,
2013-08-18 21:34:00,72.1,65.2,29.96,SE,124,0.0,13.0,79,0.00,,,0.00,Wunderground v.1.15,2013-08-19 02:34:00,
2013-08-18 21:44:00,71.8,64.9,29.96,SE,134,1.0,13.0,79,0.00,,,0.00,Wunderground v.1.15,2013-08-19 02:44:00,
2013-08-18 21:50:00,71.7,64.8,29.96,South,169,0.0,13.0,79,0.00,,,0.00,Wunderground v.1.15,2013-08-19 02:50:00,
2013-08-18 21:55:00,71.5,65.0,29.96,ESE,122,1.0,13.0,80,0.00,,,0.00,Wunderground v.1.15,2013-08-19 02:55:00,
2013-08-18 22:05:00,71.2,64.7,29.97,SW,221,1.0,13.0,80,0.00,,,0.00,Wunderground v.1.15,2013-08-19 03:05:00,
2013-08-18 22:15:00,71.0,64.5,29.97,South,184,1.0,13.0,80,0.00,,,0.00,Wunderground v.1.15,2013-08-19 03:15:00,
2013-08-18 22:25:00,70.8,64.3,29.97,SSE,152,1.0,13.0,80,0.00,,,0.00,Wunderground v.1.15,2013-08-19 03:25:00,
2013-08-18 22:34:00,70.5,64.4,29.98,SW,225,2.0,13.0,81,0.00,,,0.00,Wunderground v.1.15,2013-08-19 03:34:00,
2013-08-18 22:44:00,70.3,64.2,29.98,SSW,203,2.0,13.0,81,0.00,,,0.00,Wunderground v.1.15,2013-08-19 03:44:00,
2013-08-18 22:55:00,70.0,63.9,29.97,SE,141,2.0,13.0,81,0.00,,,0.00,Wunderground v.1.15,2013-08-19 03:55:00,
2013-08-18 23:05:00,69.8,64.1,29.97,SSE,159,1.0,13.0,82,0.00,,,0.00,Wunderground v.1.15,2013-08-19 04:05:00,
2013-08-18 23:10:00,69.7,64.0,29.97,SSE,149,1.0,1.0,82,0.00,,,0.00,Wunderground v.1.15,2013-08-19 04:10:00,
2013-08-18 23:15:00,69.5,63.8,29.96,WSW,240,0.0,13.0,82,0.00,,,0.00,Wunderground v.1.15,2013-08-19 04:15:00,
2013-08-18 23:25:00,69.3,63.9,29.96,SE,129,0.0,13.0,83,0.00,,,0.00,Wunderground v.1.15,2013-08-19 04:25:00,
2013-08-18 23:34:00,69.0,63.6,29.95,SSW,198,0.0,13.0,83,0.00,,,0.00,Wunderground v.1.15,2013-08-19 04:34:00,
2013-08-18 23:44:00,68.8,63.4,29.96,SSE,165,0.0,13.0,83,0.00,,,0.00,Wunderground v.1.15,2013-08-19 04:44:00,
2013-08-18 23:55:00,68.7,63.7,29.95,SE,128,0.0,13.0,84,0.00,,,0.00,Wunderground v.1.15,2013-08-19 04:55:00,